星链-36041(STARLINK-36041)

导读

STARLINK-36041是美国太空探索技术公司 SpaceX 星链星座的卫星,于2025年12月1日发射升空,属于Starlink Gen2星座组网卫星,主要为全球范围提供高速低延迟互联网服务,尤其服务偏远地区、移动载具及灾害应急通信。星链依托近地轨道部署,STARLINK-36041服役后将进一步扩充星座规模,提升星座全球覆盖密度和服务能力。

Basic Information
目录编号:
66798
目录名称:
STARLINK-36041
国际标识:
2025-278H
轨道中心:
EARTH
卫星名称:
星链-36041
卫星全名:
星链-36041(STARLINK-36041)
卫星状态:
在轨 (已飞行277 天)
发射日期:
2025-12-01 UTC
国别 :
美国 (US)
星等 :
--
Orbit Information
数据来源 国际轨道数据 AOE轨道数据
星历时间 2026-09-04T12:15:18+0800
7小时前
查看轨道信息
2026-09-03T23:00:00+0800
20小时前
查看轨道信息
半长轴 6861.15km 6861.212km
偏心率 0.0002435 0.0000307
轨道倾角 42.998° 42.999°
近地点辐角 247.729° 224.575°
升交点赤经 186.606° 189.730°
平近点角 112.331° 334.701°
近地点 481.342km 482.864km
远地点 484.684km 483.286km
周期 94.266分钟 94.267分钟
每日圈数 15.275922 15.275716
Detailed Information
固有亮度:
5
最大亮度:
2.5
卫星平台:
Starlink V1.0
覆盖范围:
全球
运营商:
太空探索技术公司
运营商所在国:
美国
制造商(研发单位):
太空探索技术公司
制造商所在国:
美国
使用方式:
暂无
Satellite Introduction
Starlink 计划是 SpaceX 推出的全球卫星互联网项目,通过发射低轨道卫星,为全球尤其是偏远地区提供高速、低延迟的互联网服务。自 2019 年起,Starlink 已部署数千颗卫星,旨在缩小全球数字鸿沟,推动互联网普及。该项目还为军事、航空等行业提供通信支持,带来广泛经济效益。
2D Orbit Map
3D Orbit Map
Orbit Altitude Analysis Chart
Orbit Inclination Analysis Chart
Orbit Comprehensive Analysis Chart
View Comprehensive Chart